Back to catalog

FENGYUN 1C DEB

AliveSSO
NORAD 30102·DEBRIS·🇨🇳 China

Launched May 10, 1999 from Taiyuan Satellite Launch Center

Loading…

Next Passes (next 24 hours)

TLE

FreshSource: Space-Track

Epoch: Sep 14, 2026, 11:01 UTC

1 30102U 99025RF  26257.45949316  .00000364  00000-0  16529-3 0  9993
2 30102  98.3834 256.7893 0139935 274.7766 249.9958 14.22427457 18768

Track FENGYUN 1C DEB in real time with AllMySat

Download on the App Store